Kezdőlap
METAR-TAF:

METAR-TAF

Repülőterek :

Newton Municipal Airport

Newton, Iowa, Amerikai Egyesült Államok

földrajzi szélesség: 41-41N, földrajzi hosszúság: 093-01W, magasság: 290 m

Jelenlegi meteorológiai megfigyelések

A jelentés 21 perccel ezelõtt készült, 18:15 UTC
Nyugat-délnyugati szél 9 kt, délnyugati és nyugat-északnyugati között változik
Hőmérséklet 31°C
Páratartalom 55%
Légköri nyomás 1014 hPa
Látótávolság: 16.1 km
Derült ég

METAR: KTNU 131815Z AUTO 25009KT 230V290 10SM CLR 31/21 A2994 RMK A01

Idő: 13:36 (18:36 UTC)


TAF: hiányzik

Meteorológiai megfigyelések és előrejelzések több, mint 4000 repülőtéren (METAR és TAF jelentéseket).

A térképen piros és sárga pontok jelzik az elérhető meteorológiai állomásokat.

Mozgassa az egeret a pont fölött, hogy megjelenjen az állomás neve.

Azután kattintson az időjárási megfigyelések és előrejelzések megtekintéséhez.

A térkép megváltoztatása: kattintson a fekete keresztel jelölt zöld gombra ráközelítéshez, a vonallal jelölt zöld gombra távolításhoz, vagy a zöld nyilakra a szomszédos térképek eléréséhez.


METAR-TAF: